Tracking 27380 objects as of 6-Jun-2023
HD Live streaming from Space Station
objects crossing your sky now

ATLAS 5 CENTAUR DEB

Track ATLAS 5 CENTAUR DEB now!


NORAD ID: 43990
Int'l Code: 2014-055AV
Perigee: 8,169.7 km
Apogee: 34,424.0 km
Inclination: 20.7 °
Period: 763.3 minutes
Semi major axis: 27667 km
RCS: Unknown
Launch date: September 17, 2014
Source: United States (US)
Launch site: AIR FORCE EASTERN TEST RANGE (AFETR)

Note: This is SATELLITE DEBRIS
Your satellite tracking list
Your tracking list is empty




NASA's NSSDC Master Catalog

Two Line Element Set (TLE):
1 43990U 14055AV  23151.41915156 -.00000103  00000-0  00000-0 0  9999
2 43990  20.7074 246.7717 4744549 346.5545   4.2931  1.88642701 32124
Source of the keplerian elements: AFSPC